カタログに戻る

STARLINK-31090

運用中通信VLEO
NORAD 58640·PAYLOAD·🇺🇸 United States

打ち上げ Dec 23, 2023 から Cape Canaveral Space Force Station

Loading…

次のパス (今後24時間)

TLE

最新Source: CelesTrak SupGP

元期: Sep 15, 2026, 02:45 UTC

1 58640C 23203Y   26258.11506944 -.00022486  00000+0 -81448-3 0  2585
2 58640  43.0040  69.6262 0001499 271.9643 335.2473 15.27588660    18

AllMySatでSTARLINK-31090をリアルタイム追跡

Download on the App Store